Regional Weather Roundup
Issued by NWS Charleston, WV

Home | Current Version | Previous Version | Graphics & Text | Print | Product List | Glossary On
Versions: 1 2 3 4 5 6 7 8 9 10 11 12 13 14 15 16 17 18 19 20 21 22 23 24 25 26 27 28 29 30 31 32 33 34 35 36 37 38 39 40 41 42 43 44 45 46 47 48 49 50
000
ASUS41 KRLX 290110
RWRRLX
West Virginia Regional Weather Roundup
National Weather Service Charleston WV
900 PM EDT THU JUL 28 2016

Note: "fair" indicates few or no clouds below 12,000 feet with no
significant weather and/or obstructions to visibility.

WVZ003-290200-
Northern Panhandle of West Virginia

CITY           SKY/WX    TMP DP  RH WIND       PRES   REMARKS
WHEELING         N/A     71  67  87 CALM      29.92S FOG
$$

WVZ009-290200-
Northwest West Virginia

CITY           SKY/WX    TMP DP  RH WIND       PRES   REMARKS
PARKERSBURG    MOCLDY    72  71  97 CALM      29.94R
$$

WVZ006-290200-
Western West Virginia

CITY           SKY/WX    TMP DP  RH WIND       PRES   REMARKS
HUNTINGTON     CLOUDY    73  71  93 SW5       29.91R
$$

WVZ015-290200-
West Central West Virginia

CITY           SKY/WX    TMP DP  RH WIND       PRES   REMARKS
CHARLESTON     RAIN      73  70  90 NW3       29.90S FOG
$$

WVZ022-031-290200-
North Central West Virginia

CITY           SKY/WX    TMP DP  RH WIND       PRES   REMARKS
CLARKSBURG     RAIN      69  68  96 N5        29.91S
MORGANTOWN     RAIN      70  67  90 N3        29.92S FOG
$$

WVZ025-035-042-045-290200-
Southern West Virginia

CITY           SKY/WX    TMP DP  RH WIND       PRES   REMARKS
BECKLEY        LGT RAIN  69  68  96 S5        29.96F
LOGAN          LGT RAIN  70  70 100 CALM      29.94R
BLUEFIELD      LGT RAIN  68  66  93 W6        30.00F
LEWISBURG      RAIN      72  68  89 CALM      29.94F
$$

WVZ047-290200-
Northern Mountains of West Virginia

CITY           SKY/WX    TMP DP  RH WIND       PRES   REMARKS
ELKINS         LGT RAIN  69  67  93 CALM      29.94S FOG
$$

WVZ052-290200-
Eastern Panhandle of West Virginia

CITY           SKY/WX    TMP DP  RH WIND       PRES   REMARKS
MARTINSBURG    LGT RAIN  72  70  93 E6        29.86F
PETERSBURG     CLOUDY    72  71  97 CALM      29.90S
$$



USA.gov is the U.S. government's official web portal to all federal, state and local government web resources and services.